Vertical_Velocity
-4 -1 -6 -2 1 -4 -1 -4 2 5 2 0 1 4 2 -0 -0 0 -1 1 2 -1 1 -2 -5 -3 1 -5 2 -3 -5 -7
-3 0 -3 -2 -0 -6 -2 -0 -2 5 3 2 4 2 3 0 0 0 1 3 3 6 1 -1 -3 -6 -1 -3 1 -0 -1 2
2 2 2 3 1 -2 0 1 0 3 -1 -2 2 2 1 -1 -2 -1 -2 -2 -2 -3 -3 2 4 3 -1 6 -0 4 -1 -2
6 6 3 5 6 5 5 6 4 4 3 1 -0 -1 -2 -0 -2 -3 -1 -1 3 5 2 1 -1 -4 1 7 1 3 2 4
-4 -3 -2 -3 -6 -4 -5 -2 -1 -0 -1 1 1 -0 -3 -2 -1 -1 -2 -3 -3 -2 4 5 1 0 -5 -8 -6 2 3 4
-2 0 -2 -1 -2 -1 -3 -3 1 -2 -6 -4 -1 1 1 -1 -1 -1 1 2 -1 -3 -4 1 1 -1 2 -4 -5 -7 -4 -1
-0 -2 -2 0 -1 -1 -3 -5 -2 -1 -4 -1 -1 -3 -0 2 2 2 -1 -3 -1 -1 -3 -4 -3 -0 1 2 1 -1 -7 -7
0 2 -3 0 -1 -3 0 2 1 2 1 -0 1 0 1 2 -1 -1 -3 0 -2 -4 -3 -3 -1 -2 -5 -2 1 2 -0 -3
0 -2 -1 0 -1 -0 -0 -4 -5 -1 3 1 -1 1 3 3 6 3 1 4 4 3 -1 -1 -3 -2 -2 -7 -8 -3 -2 -5
1 2 1 3 2 2 5 4 2 -2 -3 -3 -0 -3 -5 -1 -1 2 6 6 2 2 4 5 6 2 0 3 2 -7 -3 0
4 5 3 0 0 1 2 3 3 5 7 0 -2 0 -2 1 0 -5 -2 2 1 -1 -2 -1 -4 -2 4 1 -3 0 -2 -13
3 0 2 1 1 -1 -0 -0 -4 -4 -2 10 7 0 -5 -2 2 1 1 0 2 -2 -1 -2 -2 -0 2 3 8 4 3 2
-1 -1 -2 -3 -1 -2 -0 -1 -3 -5 -5 -2 1 10 4 -5 -5 0 -3 1 2 1 2 -1 -3 -5 -3 -4 1 2 3 -1
-7 -3 -1 -4 -6 -2 -2 -2 -2 -2 -2 -6 -5 -1 2 8 7 1 3 4 8 3 2 -2 2 -3 -4 -9 3 8 -8 5
8 4 -1 -2 -3 3 -1 -0 5 0 -1 0 -4 -3 0 -0 1 -0 -3 2 4 1 4 -1 -2 -1 -3 -7 -3 -5 2 -0
3 5 6 -2 -2 -1 -0 -1 -1 -1 -5 -4 -0 -1 2 0 -2 -2 -3 -5 -3 -3 -4 4 5 3 1 -6 -7 -8 -1 12
-1 -1 -1 -0 -8 -0 -3 1 -4 -4 -2 -2 -6 -2 -1 -4 -8 -9 -3 -6 0 -1 -2 -3 2 3 1 -3 1 -2 -5 -14
0 -2 -6 -5 -4 -0 -6 -8 -4 -0 2 -1 -4 6 3 1 2 -3 -4 -10 -2 -3 -4 -6 -5 -2 -2 1 -4 -4 5 -9
-6 -4 -4 -1 -3 2 2 -2 -4 -7 -4 -2 -10 -8 -3 2 3 4 -2 -6 -5 0 -6 -3 -2 -6 -2 1 1 -0 -5 -3
-10 -4 -2 -1 -1 1 1 1 -0 0 -1 -3 1 -5 -15 -4 -5 1 -0 -1 3 -2 -4 -3 -1 -4 -3 -2 -3 4 -1 -5
Height
5812 5811 5809 5807 5808 5806 5804 5803 5802 5800 5798 5797 5796 5795 5795 5794 5792 5792 5791 5790 5788 5786 5785 5782 5782 5782 5784 5784 5783 5780 5781 5784
5806 5806 5805 5805 5805 5803 5801 5799 5798 5795 5794 5793 5792 5790 5789 5788 5787 5786 5785 5784 5782 5782 5781 5779 5777 5775 5775 5774 5774 5775 5779 5783
5804 5804 5804 5803 5802 5800 5798 5797 5794 5792 5791 5789 5787 5786 5784 5783 5782 5781 5780 5779 5778 5776 5776 5775 5775 5774 5773 5772 5772 5772 5772 5774
5805 5805 5804 5802 5801 5798 5796 5795 5792 5789 5787 5785 5782 5780 5779 5777 5776 5776 5775 5774 5773 5771 5769 5770 5770 5770 5769 5770 5771 5770 5769 5768
5804 5802 5802 5801 5800 5798 5796 5794 5791 5788 5785 5783 5781 5778 5776 5773 5772 5769 5768 5767 5766 5764 5763 5762 5762 5762 5761 5762 5762 5762 5762 5762
5804 5802 5801 5799 5797 5795 5794 5791 5788 5785 5783 5781 5777 5773 5772 5769 5767 5765 5762 5760 5759 5757 5755 5754 5753 5753 5754 5753 5752 5752 5752 5752
5802 5799 5797 5796 5793 5790 5788 5785 5782 5779 5776 5773 5770 5766 5764 5762 5760 5758 5755 5753 5752 5750 5749 5746 5744 5743 5744 5744 5744 5744 5745 5744
5800 5797 5794 5791 5789 5785 5783 5780 5778 5775 5771 5767 5764 5760 5758 5755 5752 5749 5746 5745 5743 5741 5741 5739 5737 5735 5733 5732 5732 5733 5733 5733
5798 5794 5791 5788 5785 5781 5777 5773 5770 5767 5765 5761 5756 5752 5750 5748 5746 5742 5740 5737 5733 5731 5728 5727 5726 5725 5723 5722 5721 5719 5720 5720
5795 5791 5787 5784 5781 5777 5774 5768 5764 5760 5757 5752 5748 5744 5739 5736 5734 5730 5728 5725 5722 5718 5716 5713 5711 5708 5707 5708 5708 5707 5706 5706
5790 5786 5782 5778 5774 5770 5766 5762 5757 5751 5748 5743 5738 5733 5728 5723 5720 5717 5713 5710 5707 5704 5701 5700 5697 5694 5693 5692 5691 5692 5692 5693
5785 5780 5776 5770 5766 5761 5756 5751 5747 5741 5736 5732 5728 5722 5716 5711 5708 5704 5699 5696 5693 5689 5686 5683 5679 5677 5676 5675 5674 5673 5674 5674
5777 5771 5767 5761 5756 5751 5746 5741 5736 5731 5723 5717 5712 5709 5704 5698 5693 5689 5685 5682 5678 5674 5670 5665 5662 5659 5658 5656 5655 5656 5656 5655
5770 5762 5756 5750 5746 5741 5735 5730 5725 5719 5712 5705 5698 5692 5687 5684 5679 5674 5669 5666 5663 5659 5654 5649 5645 5640 5637 5635 5635 5636 5633 5634
5764 5756 5748 5741 5735 5729 5723 5718 5713 5707 5699 5693 5686 5680 5674 5669 5663 5656 5650 5646 5643 5639 5635 5631 5628 5622 5617 5613 5611 5612 5614 5613
5756 5748 5741 5732 5725 5719 5711 5704 5696 5689 5683 5676 5671 5664 5659 5652 5645 5639 5635 5630 5625 5621 5617 5613 5609 5605 5599 5592 5588 5586 5590 5597
5740 5733 5725 5717 5712 5707 5701 5693 5687 5679 5671 5664 5657 5650 5643 5637 5631 5625 5619 5613 5608 5602 5596 5591 5587 5582 5578 5573 5571 5569 5567 5566
5730 5722 5713 5706 5699 5690 5683 5674 5664 5656 5650 5644 5638 5633 5625 5618 5612 5605 5599 5593 5588 5581 5575 5569 5564 5559 5557 5554 5552 5551 5552 5549
5712 5704 5696 5688 5678 5670 5663 5658 5649 5642 5635 5628 5620 5613 5607 5603 5596 5587 5578 5571 5565 5561 5554 5551 5547 5540 5539 5537 5534 5532 5531 5531
5696 5690 5681 5673 5667 5660 5653 5645 5636 5628 5621 5613 5606 5594 5587 5584 5576 5569 5560 5552 5548 5541 5537 5532 5527 5523 5521 5519 5516 5514 5512 5512